Location: Home
(42.5358°N, 72.7383°W)
Time: 13:48:41
(UTC-05:00)

Transit 2A Rocket - Pass Details

Date: 06 December 2021
Orbit: 584 x 918 km, 66.7° (Epoch: 22 January)

Event Time Altitude Azimuth Distance (km) Brightness Sun altitude
Rises 17:01:56 0° 316° (NW) 3,537 8.7 -8.1°
Reaches altitude 10° 17:05:06 10° 301° (WNW) 2,561 8.2 -8.6°
Maximum altitude 17:09:20 20° 256° (WSW) 1,867 8.2 -9.3°
Drops below altitude 10° 17:13:22 10° 210° (SSW) 2,424 8.4 -10.0°
Sets 17:16:17 0° 194° (SSW) 3,291 8.8 -10.5°
